Total_Precipitation_Accumulation
0.01 0.00 0.00 0.01 0.01 0.00 0.00 0.01 0.02 0.05 0.07 0.09 0.11 0.13 0.13 0.10 0.08 0.08 0.07 0.07 0.07 0.09 0.12 0.17 0.20 0.23 0.26 0.26 0.18 0.11 0.08 0.07 0.05 0.03 0.02 0.02 0.02 0.02 0.04 0.03 0.02 0.03 0.01
0.01 0.00 0.01 0.01 0.02 0.01 0.00 0.01 0.02 0.04 0.06 0.07 0.07 0.08 0.08 0.08 0.07 0.07 0.08 0.09 0.10 0.12 0.12 0.14 0.18 0.22 0.22 0.19 0.14 0.09 0.06 0.04 0.03 0.04 0.06 0.11 0.16 0.12 0.10 0.09 0.05 0.06 0.01
0.01 0.00 0.01 0.01 0.02 0.02 0.02 0.02 0.02 0.04 0.07 0.08 0.07 0.06 0.05 0.04 0.04 0.05 0.07 0.10 0.14 0.16 0.15 0.14 0.15 0.16 0.16 0.13 0.08 0.05 0.02 0.02 0.03 0.06 0.15 0.28 0.37 0.28 0.24 0.21 0.20 0.12 0.03
0.01 0.00 0.00 0.01 0.02 0.04 0.03 0.04 0.03 0.05 0.08 0.12 0.13 0.11 0.07 0.04 0.04 0.06 0.08 0.10 0.13 0.15 0.13 0.11 0.10 0.10 0.08 0.05 0.04 0.02 0.01 0.01 0.03 0.07 0.16 0.26 0.36 0.31 0.24 0.25 0.32 0.30 0.21
0.02 0.01 0.00 0.01 0.02 0.05 0.06 0.06 0.06 0.07 0.11 0.15 0.17 0.17 0.12 0.06 0.04 0.07 0.10 0.11 0.12 0.15 0.17 0.14 0.09 0.06 0.04 0.03 0.03 0.01 0.01 0.01 0.04 0.13 0.28 0.43 0.48 0.44 0.31 0.27 0.32 0.37 0.36
0.01 0.00 0.00 0.01 0.02 0.05 0.08 0.08 0.09 0.10 0.13 0.17 0.21 0.20 0.13 0.06 0.05 0.08 0.12 0.15 0.17 0.20 0.25 0.22 0.20 0.13 0.08 0.05 0.03 0.02 0.02 0.03 0.09 0.26 0.38 0.50 0.50 0.43 0.28 0.22 0.24 0.34 0.36
0.01 0.01 0.00 0.02 0.03 0.06 0.08 0.07 0.08 0.11 0.13 0.18 0.21 0.17 0.11 0.06 0.04 0.07 0.14 0.17 0.21 0.24 0.24 0.21 0.19 0.14 0.12 0.10 0.08 0.09 0.10 0.13 0.18 0.31 0.35 0.37 0.37 0.29 0.20 0.16 0.14 0.15 0.20
0.02 0.01 0.00 0.01 0.03 0.10 0.15 0.10 0.06 0.08 0.10 0.15 0.19 0.16 0.10 0.08 0.09 0.13 0.15 0.18 0.21 0.19 0.16 0.17 0.16 0.13 0.15 0.17 0.17 0.18 0.18 0.20 0.19 0.22 0.22 0.21 0.21 0.13 0.15 0.16 0.11 0.08 0.08
0.08 0.05 0.02 0.02 0.02 0.05 0.06 0.05 0.04 0.04 0.07 0.12 0.17 0.20 0.16 0.13 0.20 0.24 0.21 0.21 0.25 0.21 0.16 0.17 0.18 0.15 0.19 0.23 0.19 0.16 0.14 0.12 0.09 0.07 0.07 0.07 0.07 0.05 0.06 0.07 0.06 0.04 0.04
0.30 0.38 0.16 0.09 0.04 0.02 0.02 0.01 0.01 0.01 0.02 0.05 0.08 0.12 0.13 0.15 0.19 0.21 0.17 0.16 0.19 0.14 0.11 0.10 0.12 0.12 0.10 0.08 0.05 0.03 0.02 0.02 0.01 0.01 0.01 0.02 0.02 0.02 0.02 0.02 0.02 0.03 0.03
0.54 0.71 0.49 0.18 0.04 0.01 0.02 0.01 0.00 0.00 0.00 0.01 0.02 0.04 0.09 0.18 0.21 0.19 0.12 0.09 0.07 0.04 0.02 0.02 0.02 0.01 0.01 0.01 0.00 0.00 0.00 0.00 0.00 0.00 0.01 0.02 0.02 0.01 0.01 0.01 0.00 0.00 0.01
0.64 0.60 0.47 0.11 0.03 0.01 0.01 0.01 0.02 0.01 0.01 0.03 0.05 0.04 0.11 0.18 0.20 0.13 0.06 0.03 0.01 0.00 0.00 0.00 0.00 0.00 0.00 0.00 0.00 0.00 0.00 0.00 0.00 0.00 0.00 0.00 0.00 0.01 0.00 0.00 0.00 0.00 0.00
0.57 0.32 0.16 0.10 0.06 0.03 0.01 0.01 0.02 0.02 0.02 0.02 0.04 0.04 0.09 0.08 0.05 0.02 0.01 0.01 0.00 0.00 0.00 0.00 0.00 0.00 0.00 0.00 0.00 0.00 0.00 0.00 0.00 0.00 0.00 0.00 0.00 0.00 0.00 0.00 0.00 0.00 0.00
0.32 0.23 0.13 0.10 0.07 0.05 0.02 0.01 0.02 0.02 0.02 0.02 0.02 0.02 0.04 0.06 0.05 0.04 0.03 0.02 0.02 0.01 0.01 0.00 0.00 0.00 0.00 0.00 0.00 0.00 0.00 0.00 0.00 0.00 0.00 0.00 0.00 0.00 0.00 0.00 0.01 0.01 0.01
0.31 0.29 0.16 0.11 0.07 0.04 0.02 0.01 0.01 0.01 0.01 0.01 0.01 0.01 0.01 0.03 0.04 0.05 0.05 0.03 0.02 0.03 0.03 0.02 0.02 0.01 0.00 0.00 0.00 0.00 0.00 0.00 0.00 0.00 0.00 0.00 0.00 0.00 0.00 0.01 0.01 0.01 0.01
0.49 0.46 0.23 0.10 0.04 0.02 0.01 0.01 0.01 0.01 0.02 0.03 0.04 0.03 0.02 0.04 0.05 0.05 0.05 0.05 0.02 0.02 0.02 0.02 0.02 0.02 0.01 0.01 0.01 0.01 0.01 0.01 0.01 0.00 0.00 0.00 0.00 0.01 0.01 0.01 0.02 0.02 0.02
0.69 0.64 0.29 0.09 0.03 0.02 0.01 0.01 0.01 0.02 0.03 0.05 0.06 0.05 0.03 0.03 0.05 0.04 0.04 0.04 0.02 0.02 0.02 0.02 0.01 0.01 0.01 0.01 0.01 0.01 0.02 0.02 0.02 0.01 0.02 0.02 0.02 0.03 0.03 0.03 0.03 0.04 0.03
1.01 1.00 0.41 0.10 0.03 0.03 0.03 0.02 0.02 0.02 0.03 0.03 0.03 0.03 0.01 0.01 0.02 0.03 0.03 0.03 0.03 0.02 0.02 0.03 0.03 0.02 0.04 0.03 0.03 0.04 0.04 0.04 0.04 0.04 0.05 0.05 0.06 0.06 0.06 0.05 0.05 0.05 0.04
1.49 1.27 0.51 0.16 0.08 0.06 0.06 0.04 0.05 0.06 0.05 0.04 0.04 0.03 0.02 0.02 0.02 0.02 0.04 0.04 0.04 0.04 0.05 0.07 0.09 0.09 0.09 0.08 0.07 0.07 0.06 0.05 0.06 0.07 0.07 0.07 0.06 0.06 0.06 0.06 0.06 0.06 0.05
1.91 1.43 0.68 0.42 0.30 0.18 0.11 0.08 0.08 0.08 0.07 0.07 0.06 0.06 0.06 0.05 0.04 0.05 0.07 0.08 0.06 0.07 0.10 0.12 0.12 0.10 0.08 0.06 0.04 0.04 0.04 0.05 0.05 0.05 0.04 0.04 0.04 0.04 0.03 0.03 0.03 0.03 0.05
0.92 0.83 0.69 0.59 0.49 0.36 0.26 0.19 0.15 0.13 0.10 0.11 0.13 0.13 0.14 0.14 0.13 0.13 0.10 0.10 0.10 0.10 0.09 0.07 0.06 0.06 0.04 0.03 0.02 0.02 0.01 0.01 0.02 0.02 0.01 0.01 0.01 0.01 0.01 0.01 0.01 0.01 0.02
0.53 0.65 0.68 0.59 0.50 0.43 0.39 0.30 0.25 0.20 0.18 0.20 0.24 0.29 0.28 0.25 0.22 0.17 0.13 0.09 0.08 0.07 0.05 0.04 0.03 0.02 0.01 0.01 0.01 0.01 0.00 0.00 0.00 0.00 0.00 0.00 0.00 0.00 0.00 0.00 0.00 0.00 0.00
0.43 0.61 0.67 0.61 0.57 0.54 0.46 0.40 0.37 0.33 0.30 0.35 0.41 0.42 0.37 0.30 0.23 0.17 0.11 0.06 0.04 0.03 0.02 0.02 0.02 0.02 0.01 0.01 0.01 0.02 0.02 0.01 0.00 0.00 0.00 0.00 0.00 0.00 0.00 0.00 0.00 0.00 0.00
0.49 0.62 0.65 0.63 0.61 0.59 0.52 0.48 0.48 0.46 0.43 0.46 0.40 0.38 0.31 0.21 0.14 0.09 0.06 0.04 0.02 0.01 0.01 0.01 0.01 0.01 0.01 0.01 0.00 0.01 0.01 0.01 0.02 0.01 0.00 0.00 0.00 0.00 0.00 0.00 0.00 0.00 0.00
0.50 0.60 0.63 0.63 0.64 0.60 0.53 0.50 0.49 0.45 0.42 0.36 0.28 0.23 0.16 0.11 0.07 0.05 0.03 0.02 0.01 0.01 0.01 0.01 0.00 0.00 0.00 0.00 0.00 0.01 0.01 0.01 0.02 0.04 0.02 0.01 0.00 0.00 0.00 0.00 0.00 0.00 0.00
0.35 0.44 0.47 0.47 0.49 0.49 0.46 0.42 0.36 0.33 0.30 0.25 0.18 0.13 0.08 0.05 0.03 0.02 0.01 0.01 0.01 0.00 0.00 0.00 0.00 0.01 0.01 0.02 0.02 0.02 0.02 0.03 0.03 0.04 0.05 0.03 0.01 0.00 0.00 0.00 0.00 0.00 0.01